User: anonymous   Login
Location: Unspecified
(0.0000°N, 0.0000°E)
Time: 01:26:41
(UTC+00:00)
Language:

RS-15 - Orbit

View from above orbital plane
View from above orbital plane
View from above satellite
View from above satellite

Ground track
Ground track

The orbit data is extracted from the following two-line orbital elements,

1 23439U 94085A   19344.76833517 -.00000015 +00000-0 +78805-3 0  9996
2 23439 064.8133 193.0023 0145836 078.9232 282.8053 11.27569256027634
Epoch (UTC): 10 December 2019 18:26:24
Eccentricity: 0.0145836
inclination: 64.8133°
perigee height: 1900 km
apogee height: 2145 km
right ascension of ascending node: 193.0023°
argument of perigee: 78.9232°
revolutions per day: 11.27569256
mean anomaly at epoch: 282.8053°
orbit number at epoch: 2763

The dashed part of the orbit path shows where the satellite is in the earth's shadow,  

DLR